KAL2703 RKSI-ZYTL

Flight info

Callsign KAL2703
Flight time 0h 57m
Altitude 34000
Route NOPIK2Y NOPIK G597 AGAVO/K0887S1040 G597 DONVO A326 SANKO W579 RUPID RUP06A
Aircraft B77W/H-SDE1E2E3FGHIJ2J3J4J5M1RWXY/LB1D1

Departure

Time 2026-04-18 05:45
Airport Incheon International Airport (RKSI)

Arrival

Time 2026-04-18 06:42
Airport Dalian Zhoushuizi International Airport (ZYTL)
Time Latitude Longitude Altitude Speed Heading
2026-04-18 05:20 37.46681 126.43632 38 ft 5 kts 325°
2026-04-18 05:27 37.46680 126.43633 38 ft 1 kts 325°
2026-04-18 05:28 37.46669 126.43643 36 ft 3 kts 325°
2026-04-18 05:28 37.46652 126.43657 34 ft 3 kts 325°
2026-04-18 05:28 37.46639 126.43668 34 ft 3 kts 322°
2026-04-18 05:28 37.46625 126.43685 34 ft 3 kts 294°
2026-04-18 05:29 37.46621 126.43707 34 ft 3 kts 254°
2026-04-18 05:29 37.46629 126.43729 35 ft 3 kts 233°
2026-04-18 05:29 37.46642 126.43748 36 ft 2 kts 233°
2026-04-18 05:29 37.46647 126.43757 36 ft 1 kts 234°
2026-04-18 05:30 37.46647 126.43758 36 ft 4 kts 234°
2026-04-18 05:32 37.46647 126.43756 36 ft 1 kts 234°
2026-04-18 05:33 37.46642 126.43749 36 ft 2 kts 234°
2026-04-18 05:33 37.46631 126.43729 35 ft 3 kts 234°
2026-04-18 05:33 37.46616 126.43702 36 ft 4 kts 234°
2026-04-18 05:33 37.46597 126.43669 35 ft 5 kts 234°
2026-04-18 05:34 37.46575 126.43631 38 ft 6 kts 234°
2026-04-18 05:34 37.46551 126.43588 38 ft 6 kts 234°
2026-04-18 05:34 37.46523 126.43540 38 ft 7 kts 234°
2026-04-18 05:34 37.46492 126.43489 38 ft 8 kts 220°
2026-04-18 05:35 37.46440 126.43490 38 ft 8 kts 162°
2026-04-18 05:35 37.46388 126.43525 38 ft 9 kts 147°
2026-04-18 05:35 37.46337 126.43571 38 ft 9 kts 143°
2026-04-18 05:35 37.46285 126.43619 38 ft 9 kts 143°
2026-04-18 05:36 37.46231 126.43665 38 ft 9 kts 158°
2026-04-18 05:36 37.46174 126.43638 38 ft 10 kts 231°
2026-04-18 05:36 37.46137 126.43577 38 ft 0 kts 234°
2026-04-18 05:36 37.46135 126.43574 38 ft 1 kts 234°
2026-04-18 05:37 37.46129 126.43564 38 ft 2 kts 234°
2026-04-18 05:37 37.46119 126.43547 38 ft 3 kts 234°
2026-04-18 05:37 37.46105 126.43523 38 ft 4 kts 234°
2026-04-18 05:37 37.46071 126.43464 38 ft 12 kts 234°
2026-04-18 05:38 37.46015 126.43366 38 ft 16 kts 235°
2026-04-18 05:38 37.45945 126.43239 38 ft 19 kts 235°
2026-04-18 05:38 37.45856 126.43120 38 ft 13 kts 194°
2026-04-18 05:38 37.45788 126.43154 38 ft 12 kts 144°
2026-04-18 05:39 37.45707 126.43226 38 ft 16 kts 145°
2026-04-18 05:39 37.45603 126.43318 38 ft 20 kts 145°
2026-04-18 05:39 37.45477 126.43430 38 ft 24 kts 145°
2026-04-18 05:39 37.45330 126.43559 38 ft 27 kts 145°
2026-04-18 05:40 37.45167 126.43703 38 ft 31 kts 145°
2026-04-18 05:40 37.44984 126.43864 38 ft 34 kts 145°
2026-04-18 05:40 37.44785 126.44038 37 ft 36 kts 145°
2026-04-18 05:40 37.44619 126.44194 37 ft 7 kts 144°
2026-04-18 05:41 37.44568 126.44241 37 ft 12 kts 144°
2026-04-18 05:41 37.44491 126.44311 37 ft 16 kts 144°
2026-04-18 05:41 37.44444 126.44321 37 ft 5 kts 205°
2026-04-18 05:41 37.44421 126.44291 37 ft 0 kts 235°
2026-04-18 05:42 37.44411 126.44274 37 ft 5 kts 235°
2026-04-18 05:42 37.44384 126.44223 37 ft 9 kts 237°
2026-04-18 05:42 37.44378 126.44194 37 ft 0 kts 266°
2026-04-18 05:42 37.44378 126.44193 37 ft 1 kts 266°
2026-04-18 05:43 37.44378 126.44185 37 ft 1 kts 272°
2026-04-18 05:43 37.44380 126.44171 37 ft 2 kts 279°
2026-04-18 05:43 37.44385 126.44153 37 ft 3 kts 296°
2026-04-18 05:43 37.44399 126.44132 37 ft 3 kts 315°
2026-04-18 05:44 37.44417 126.44109 37 ft 4 kts 315°
2026-04-18 05:44 37.44441 126.44087 37 ft 5 kts 324°
2026-04-18 05:44 37.44542 126.43996 36 ft 39 kts 324°
2026-04-18 05:44 37.45046 126.43546 38 ft 139 kts 324°
2026-04-18 05:45 37.46056 126.42634 113 ft 208 kts 323°
2026-04-18 05:45 37.47252 126.41597 1135 ft 203 kts 327°
2026-04-18 05:45 37.48240 126.40452 2392 ft 194 kts 306°
2026-04-18 05:45 37.49054 126.38991 3060 ft 216 kts 309°
2026-04-18 05:46 37.49978 126.37339 3442 ft 243 kts 295°
2026-04-18 05:46 37.50456 126.35268 4318 ft 253 kts 279°
2026-04-18 05:46 37.50568 126.33009 5217 ft 263 kts 272°
2026-04-18 05:46 37.50589 126.30664 6182 ft 271 kts 272°
2026-04-18 05:47 37.50613 126.28272 7203 ft 275 kts 272°
2026-04-18 05:47 37.50654 126.25840 8226 ft 280 kts 273°
2026-04-18 05:47 37.50706 126.23374 9245 ft 284 kts 273°
2026-04-18 05:47 37.50763 126.20863 10212 ft 290 kts 273°
2026-04-18 05:48 37.50657 126.18289 10796 ft 307 kts 257°
2026-04-18 05:48 37.49685 126.15771 11019 ft 335 kts 237°
2026-04-18 05:48 37.48303 126.13238 11256 ft 366 kts 236°
2026-04-18 05:48 37.46827 126.10536 11904 ft 381 kts 236°
2026-04-18 05:49 37.45328 126.07743 12845 ft 388 kts 237°
2026-04-18 05:49 37.43823 126.04896 13888 ft 393 kts 237°
2026-04-18 05:49 37.42308 126.02012 14847 ft 397 kts 237°
2026-04-18 05:49 37.41007 125.98967 15624 ft 400 kts 251°
2026-04-18 05:50 37.40572 125.95511 16454 ft 401 kts 269°
2026-04-18 05:50 37.40580 125.91970 17225 ft 409 kts 270°
2026-04-18 05:50 37.40574 125.88371 18144 ft 413 kts 270°
2026-04-18 05:50 37.40550 125.84746 19002 ft 417 kts 269°
2026-04-18 05:51 37.40514 125.81081 19835 ft 421 kts 269°
2026-04-18 05:51 37.40469 125.77390 20641 ft 425 kts 269°
2026-04-18 05:51 37.40419 125.73652 21422 ft 429 kts 269°
2026-04-18 05:51 37.40368 125.69879 22144 ft 434 kts 269°
2026-04-18 05:52 37.40314 125.66058 22903 ft 439 kts 269°
2026-04-18 05:52 37.40261 125.62253 23636 ft 443 kts 269°
2026-04-18 05:52 37.40209 125.58365 24302 ft 445 kts 269°
2026-04-18 05:52 37.40158 125.54474 25061 ft 445 kts 269°
2026-04-18 05:53 37.40105 125.50542 25834 ft 444 kts 268°
2026-04-18 05:53 37.40053 125.46712 26555 ft 444 kts 268°
2026-04-18 05:53 37.39998 125.42824 27220 ft 445 kts 268°
2026-04-18 05:53 37.39941 125.38927 27814 ft 447 kts 268°
2026-04-18 05:54 37.39882 125.35010 28409 ft 449 kts 268°
2026-04-18 05:54 37.39822 125.31086 28989 ft 450 kts 268°
2026-04-18 05:54 37.39762 125.27150 29546 ft 450 kts 268°
2026-04-18 05:54 37.39699 125.23214 30129 ft 450 kts 268°
2026-04-18 05:55 37.39635 125.19295 30731 ft 446 kts 267°
2026-04-18 05:55 37.39571 125.15406 31293 ft 444 kts 267°
2026-04-18 05:55 37.39506 125.11533 31809 ft 442 kts 267°
2026-04-18 05:55 37.39440 125.07674 32285 ft 441 kts 266°
2026-04-18 05:56 37.39372 125.03822 32772 ft 440 kts 266°
2026-04-18 05:56 37.39305 124.99981 33288 ft 438 kts 266°
2026-04-18 05:56 37.39236 124.96159 33778 ft 436 kts 266°
2026-04-18 05:56 37.39166 124.92344 34098 ft 438 kts 266°
2026-04-18 05:57 37.38391 124.84806 34067 ft 433 kts 252°
2026-04-18 05:57 37.37443 124.81220 34066 ft 432 kts 248°
2026-04-18 05:58 37.34625 124.74571 34074 ft 432 kts 237°
2026-04-18 05:58 37.31384 124.68200 34063 ft 433 kts 238°
2026-04-18 05:59 37.28185 124.61774 34069 ft 434 kts 238°
2026-04-18 05:59 37.24985 124.55395 34069 ft 435 kts 238°
2026-04-18 06:00 37.21756 124.48966 34072 ft 436 kts 238°
2026-04-18 06:00 37.19049 124.42191 34073 ft 437 kts 250°
2026-04-18 06:01 37.17711 124.34740 34070 ft 441 kts 263°
2026-04-18 06:01 37.17487 124.27032 34071 ft 443 kts 265°
2026-04-18 06:02 37.17313 124.19296 34078 ft 444 kts 265°
2026-04-18 06:02 37.17078 124.11555 34070 ft 444 kts 265°
2026-04-18 06:03 37.17037 124.03814 34076 ft 448 kts 275°
2026-04-18 06:03 37.18995 123.96313 34096 ft 461 kts 293°
2026-04-18 06:04 37.22724 123.89680 34083 ft 468 kts 303°
2026-04-18 06:04 37.26747 123.83242 34078 ft 469 kts 303°
2026-04-18 06:05 37.30722 123.76764 34077 ft 468 kts 302°
2026-04-18 06:05 37.34645 123.70256 34076 ft 466 kts 302°
2026-04-18 06:06 37.38540 123.63753 34076 ft 465 kts 302°
2026-04-18 06:06 37.42421 123.57265 34077 ft 463 kts 302°
2026-04-18 06:07 37.46288 123.50792 34079 ft 462 kts 302°
2026-04-18 06:07 37.50142 123.44329 34078 ft 461 kts 302°
2026-04-18 06:08 37.53990 123.37866 34078 ft 461 kts 302°
2026-04-18 06:08 37.57955 123.31587 34077 ft 464 kts 309°
2026-04-18 06:09 37.62502 123.25782 34077 ft 465 kts 310°
2026-04-18 06:09 37.67084 123.20011 34079 ft 465 kts 310°
2026-04-18 06:10 37.71643 123.14209 34075 ft 465 kts 310°
2026-04-18 06:10 37.76185 123.08384 34077 ft 465 kts 310°
2026-04-18 06:11 37.80726 123.02543 34069 ft 466 kts 310°
2026-04-18 06:11 37.85261 122.96701 34069 ft 466 kts 310°
2026-04-18 06:12 37.89797 122.90847 34069 ft 465 kts 310°
2026-04-18 06:12 37.94329 122.84989 34069 ft 465 kts 310°
2026-04-18 06:13 37.98855 122.79127 34069 ft 465 kts 310°
2026-04-18 06:13 38.03371 122.73265 33878 ft 466 kts 310°
2026-04-18 06:13 38.05655 122.70294 33103 ft 472 kts 311°
2026-04-18 06:14 38.07941 122.67321 32297 ft 470 kts 311°
2026-04-18 06:14 38.10224 122.64352 31425 ft 470 kts 312°
2026-04-18 06:14 38.12508 122.61404 30849 ft 465 kts 312°
2026-04-18 06:14 38.14769 122.58500 30238 ft 460 kts 313°
2026-04-18 06:15 38.17012 122.55618 29573 ft 457 kts 313°
2026-04-18 06:15 38.19233 122.52757 28934 ft 452 kts 313°
2026-04-18 06:15 38.21427 122.49926 28332 ft 447 kts 313°
2026-04-18 06:15 38.23766 122.47360 27725 ft 444 kts 324°
2026-04-18 06:16 38.26438 122.45411 27150 ft 442 kts 334°
2026-04-18 06:16 38.29301 122.44026 26573 ft 440 kts 344°
2026-04-18 06:16 38.32295 122.43237 26037 ft 437 kts 349°
2026-04-18 06:16 38.35274 122.42538 25489 ft 434 kts 348°
2026-04-18 06:17 38.38235 122.41791 24936 ft 432 kts 348°
2026-04-18 06:17 38.41109 122.40802 24372 ft 427 kts 336°
2026-04-18 06:17 38.43619 122.38885 23834 ft 418 kts 323°
2026-04-18 06:17 38.45172 122.37441 23455 ft 417 kts 323°
2026-04-18 06:18 38.48319 122.34547 22632 ft 416 kts 323°
2026-04-18 06:18 38.49879 122.33134 22255 ft 414 kts 324°
2026-04-18 06:18 38.53026 122.30319 21520 ft 411 kts 324°
2026-04-18 06:18 38.54578 122.28941 21152 ft 410 kts 324°
2026-04-18 06:19 38.57701 122.26175 20445 ft 407 kts 324°
2026-04-18 06:19 38.59241 122.24812 20083 ft 406 kts 324°
2026-04-18 06:19 38.61556 122.22761 19541 ft 404 kts 324°
2026-04-18 06:19 38.63862 122.20715 19018 ft 403 kts 324°
2026-04-18 06:20 38.66903 122.18015 18294 ft 401 kts 324°
2026-04-18 06:20 38.68448 122.16643 17887 ft 400 kts 324°
2026-04-18 06:20 38.71454 122.13934 17155 ft 397 kts 323°
2026-04-18 06:20 38.73670 122.11904 17004 ft 385 kts 323°
2026-04-18 06:21 38.75783 122.09904 16810 ft 368 kts 317°
2026-04-18 06:21 38.76923 122.08281 16707 ft 359 kts 303°
2026-04-18 06:21 38.78009 122.05479 16539 ft 347 kts 285°
2026-04-18 06:21 38.78713 122.01566 16343 ft 334 kts 281°
2026-04-18 06:22 38.79033 121.99615 16261 ft 328 kts 281°
2026-04-18 06:22 38.79470 121.96795 16096 ft 316 kts 274°
2026-04-18 06:22 38.79264 121.94074 15991 ft 303 kts 250°
2026-04-18 06:22 38.78280 121.91742 15736 ft 297 kts 230°
2026-04-18 06:23 38.76818 121.89932 15399 ft 296 kts 214°
2026-04-18 06:23 38.74982 121.88777 15053 ft 294 kts 199°
2026-04-18 06:23 38.73057 121.87904 14709 ft 294 kts 198°
2026-04-18 06:23 38.71159 121.86932 14331 ft 293 kts 209°
2026-04-18 06:24 38.69468 121.85464 13999 ft 295 kts 216°
2026-04-18 06:24 38.67826 121.83885 13613 ft 296 kts 216°
2026-04-18 06:24 38.66158 121.82321 13215 ft 298 kts 215°
2026-04-18 06:24 38.64502 121.80748 12910 ft 294 kts 221°
2026-04-18 06:25 38.63109 121.78824 12560 ft 294 kts 230°
2026-04-18 06:25 38.61837 121.76775 12235 ft 294 kts 231°
2026-04-18 06:25 38.60569 121.74753 12025 ft 288 kts 230°
2026-04-18 06:25 38.59313 121.72789 11705 ft 286 kts 230°
2026-04-18 06:26 38.58216 121.70637 11143 ft 291 kts 243°
2026-04-18 06:26 38.57376 121.68319 10953 ft 284 kts 246°
2026-04-18 06:26 38.56732 121.65995 10584 ft 279 kts 262°
2026-04-18 06:26 38.56935 121.63520 10164 ft 282 kts 290°
2026-04-18 06:27 38.57931 121.61410 10009 ft 276 kts 310°
2026-04-18 06:27 38.59426 121.59874 9600 ft 278 kts 334°
2026-04-18 06:27 38.61215 121.59081 9428 ft 269 kts 341°
2026-04-18 06:27 38.62999 121.58396 9242 ft 267 kts 341°
2026-04-18 06:28 38.64775 121.57719 9075 ft 265 kts 341°
2026-04-18 06:28 38.66537 121.57043 8918 ft 264 kts 341°
2026-04-18 06:28 38.68287 121.56366 8758 ft 262 kts 341°
2026-04-18 06:28 38.70026 121.55689 8607 ft 261 kts 341°
2026-04-18 06:29 38.71755 121.55012 8451 ft 259 kts 341°
2026-04-18 06:29 38.73479 121.54334 8298 ft 259 kts 341°
2026-04-18 06:29 38.75197 121.53656 8148 ft 258 kts 341°
2026-04-18 06:29 38.76912 121.52978 7998 ft 258 kts 341°
2026-04-18 06:30 38.78625 121.52300 7853 ft 258 kts 341°
2026-04-18 06:30 38.80319 121.51628 7693 ft 258 kts 341°
2026-04-18 06:30 38.82036 121.50948 7549 ft 258 kts 341°
2026-04-18 06:30 38.83756 121.50265 7394 ft 259 kts 340°
2026-04-18 06:31 38.85467 121.49586 7274 ft 255 kts 341°
2026-04-18 06:31 38.87169 121.48912 7081 ft 250 kts 341°
2026-04-18 06:31 38.88816 121.48461 6924 ft 243 kts 352°
2026-04-18 06:31 38.90477 121.48330 6783 ft 236 kts 355°
2026-04-18 06:32 38.92112 121.48248 6657 ft 234 kts 355°
2026-04-18 06:32 38.93762 121.48157 6521 ft 234 kts 355°
2026-04-18 06:32 38.95387 121.48055 6380 ft 233 kts 354°
2026-04-18 06:32 38.96983 121.47945 6245 ft 233 kts 354°
2026-04-18 06:33 38.98596 121.47827 6105 ft 232 kts 354°
2026-04-18 06:33 39.00207 121.47705 5969 ft 231 kts 354°
2026-04-18 06:33 39.01810 121.47581 5844 ft 231 kts 354°
2026-04-18 06:33 39.03412 121.47458 5692 ft 230 kts 354°
2026-04-18 06:34 39.04930 121.47019 5527 ft 221 kts 326°
2026-04-18 06:34 39.05977 121.45614 5435 ft 217 kts 295°
2026-04-18 06:34 39.06420 121.43776 5331 ft 221 kts 277°
2026-04-18 06:34 39.06580 121.41805 5200 ft 222 kts 274°
2026-04-18 06:35 39.06705 121.39840 5097 ft 220 kts 274°
2026-04-18 06:35 39.06836 121.37877 4930 ft 220 kts 275°
2026-04-18 06:35 39.06974 121.35890 4795 ft 219 kts 275°
2026-04-18 06:35 39.07114 121.33942 4654 ft 218 kts 275°
2026-04-18 06:36 39.07253 121.32032 4525 ft 217 kts 275°
2026-04-18 06:36 39.07367 121.30086 4383 ft 212 kts 266°
2026-04-18 06:36 39.06903 121.28345 4256 ft 212 kts 234°
2026-04-18 06:36 39.05771 121.27112 4167 ft 219 kts 209°
2026-04-18 06:37 39.04291 121.26603 4035 ft 223 kts 189°
2026-04-18 06:37 39.02718 121.26414 3898 ft 225 kts 186°
2026-04-18 06:37 39.01178 121.26251 3770 ft 225 kts 187°
2026-04-18 06:37 38.99604 121.26199 3605 ft 222 kts 171°
2026-04-18 06:38 38.98284 121.27071 3508 ft 211 kts 135°
2026-04-18 06:38 38.97675 121.28671 3354 ft 199 kts 98°
2026-04-18 06:38 38.97613 121.30373 3248 ft 187 kts 94°
2026-04-18 06:38 38.97545 121.32017 3166 ft 183 kts 94°
2026-04-18 06:39 38.97478 121.33646 3089 ft 183 kts 94°
2026-04-18 06:39 38.97415 121.35285 2924 ft 186 kts 94°
2026-04-18 06:39 38.97352 121.36946 2652 ft 185 kts 94°
2026-04-18 06:39 38.97289 121.38577 2386 ft 181 kts 95°
2026-04-18 06:40 38.97227 121.40176 2134 ft 178 kts 95°
2026-04-18 06:40 38.97165 121.41769 1871 ft 178 kts 95°
2026-04-18 06:40 38.97105 121.43352 1621 ft 177 kts 95°
2026-04-18 06:40 38.97043 121.44927 1344 ft 176 kts 95°
2026-04-18 06:41 38.96984 121.46476 1093 ft 173 kts 96°
2026-04-18 06:41 38.96925 121.48005 838 ft 169 kts 94°
2026-04-18 06:41 38.96868 121.49484 588 ft 162 kts 93°
2026-04-18 06:41 38.96810 121.50925 374 ft 162 kts 94°
2026-04-18 06:42 38.96691 121.52332 185 ft 153 kts 96°
2026-04-18 06:42 38.96592 121.53587 155 ft 127 kts 95°
2026-04-18 06:42 38.96524 121.54453 155 ft 49 kts 95°
2026-04-18 06:42 38.96466 121.54687 155 ft 26 kts 121°
2026-04-18 06:43 38.96374 121.54813 155 ft 5 kts 152°
2026-04-18 06:43 38.96344 121.54805 155 ft 5 kts 223°
2026-04-18 06:43 38.96331 121.54760 155 ft 6 kts 263°
2026-04-18 06:43 38.96329 121.54704 155 ft 7 kts 272°
2026-04-18 06:44 38.96333 121.54641 155 ft 7 kts 276°
2026-04-18 06:44 38.96338 121.54572 155 ft 8 kts 276°
2026-04-18 06:44 38.96344 121.54495 155 ft 9 kts 276°
2026-04-18 06:44 38.96351 121.54412 155 ft 10 kts 276°
2026-04-18 06:45 38.96358 121.54323 155 ft 10 kts 276°
2026-04-18 06:45 38.96365 121.54232 155 ft 10 kts 275°
2026-04-18 06:45 38.96372 121.54140 155 ft 10 kts 276°
2026-04-18 06:45 38.96380 121.54048 155 ft 10 kts 276°
2026-04-18 06:46 38.96387 121.53955 155 ft 10 kts 275°
2026-04-18 06:46 38.96393 121.53864 155 ft 10 kts 275°
2026-04-18 06:46 38.96399 121.53771 155 ft 10 kts 275°
2026-04-18 06:46 38.96405 121.53680 155 ft 10 kts 275°
2026-04-18 06:47 38.96399 121.53611 155 ft 3 kts 242°
2026-04-18 06:47 38.96403 121.53583 155 ft 4 kts 283°
2026-04-18 06:47 38.96409 121.53546 155 ft 5 kts 283°
2026-04-18 06:47 38.96417 121.53503 155 ft 5 kts 283°
2026-04-18 06:48 38.96423 121.53451 155 ft 6 kts 270°
2026-04-18 06:48 38.96390 121.53422 155 ft 7 kts 183°
2026-04-18 06:48 38.96343 121.53408 155 ft 7 kts 192°
2026-04-18 06:48 38.96290 121.53401 155 ft 8 kts 182°
2026-04-18 06:49 38.96276 121.53401 155 ft 1 kts 182°
2026-04-18 06:49 38.96275 121.53400 155 ft 0 kts 182°
2026-04-18 07:04 38.96275 121.53401 155 ft 0 kts 182°
2026-04-18 07:04 38.96275 121.53400 155 ft 0 kts 182°
2026-04-18 07:07 38.96275 121.53401 155 ft 0 kts 182°
2026-04-18 07:07 38.96275 121.53400 155 ft 0 kts 182°
2026-04-18 07:08 38.96275 121.53401 155 ft 0 kts 182°
2026-04-18 07:08 38.96275 121.53400 155 ft 0 kts 182°
2026-04-18 07:09 38.96275 121.53401 155 ft 0 kts 182°
2026-04-18 07:09 38.96275 121.53400 155 ft 0 kts 182°
2026-04-18 07:10 38.96275 121.53401 155 ft 0 kts 182°
2026-04-18 07:28 37.46681 126.43631 16 ft 0 kts 325°